Location: Bacharowice
(49.9333°N, 19.5833°E)
Time: 14:08:04
(UTC+00:00)

SOZ - Pass Details

Date: 07 October 2021
Orbit: 306 x 16685 km, 52.1° (Epoch: 27 October)

Event Time Altitude Azimuth Distance (km) Brightness Sun altitude
Rises 00:54:09 0° 224° (SW) 21,426 12.8 -36.2°
Enters shadow 01:01:29 - 225° (SW) 20,794 12.8 -35.4°
Exits shadow 02:04:54 29° 234° (SW) 10,719 11.2 -26.9°
Maximum altitude 02:32:41 82° 155° (SSE) 3,172 9.0 -22.7°
Drops below altitude 10° 02:41:54 10° 70° (ENE) 3,512 10.6 -21.3°
Sets 02:43:33 0° 69° (ENE) 4,024 11.3 -21.1°
